Wind_Speed
10 10 10 10 9 9 9 9 10 10 10 9 8 8 7 6 7 7 5 4 5 10 11 13 12 6 7 6 5 5 4 1 1 1 3 8 4 11 1 13 1 1 22 23 26
10 10 9 9 9 8 9 9 9 10 9 8 8 6 6 4 4 5 2 4 6 6 7 7 8 5 5 3 2 3 2 4 2 2 4 7 1 7 4 9 5 18 23 25 26
11 10 9 9 8 8 7 8 8 8 8 7 6 4 4 2 2 5 2 6 6 9 4 3 5 3 3 4 1 2 0 2 7 4 2 3 5 4 14 3 10 30 30 28 26
12 12 10 9 7 7 7 7 7 7 7 6 4 2 2 4 5 3 7 8 9 10 7 5 5 3 3 5 7 2 3 3 3 5 1 2 3 1 16 4 20 29 29 29 27
13 13 11 9 7 6 6 6 7 7 6 5 1 1 3 4 4 3 5 6 5 5 5 3 4 2 2 2 8 2 7 4 5 6 6 7 3 4 21 1 23 28 29 27 26
13 13 12 11 8 7 6 6 7 7 5 4 2 2 4 4 8 7 9 8 5 3 1 3 1 6 2 2 3 11 13 6 3 7 7 11 7 10 12 16 25 29 29 27 27
14 13 12 11 9 8 6 6 7 4 4 4 4 3 6 4 5 5 5 4 3 2 3 4 4 4 9 4 4 16 6 7 7 4 5 13 3 4 17 24 30 30 30 28 27
13 13 12 9 8 9 9 8 3 6 6 6 7 9 6 3 3 4 1 0 2 2 4 6 2 3 2 1 6 2 3 3 3 3 6 3 6 5 26 30 27 30 31 30 28
11 12 11 6 8 10 9 4 5 9 6 6 7 7 5 6 5 2 3 3 4 5 4 3 1 2 1 3 3 1 3 3 5 11 3 8 5 4 29 26 26 27 29 31 29
10 10 9 4 7 11 7 2 2 7 4 5 7 5 5 5 2 1 2 4 3 4 0 2 3 4 4 5 2 2 2 1 6 8 14 8 12 5 24 27 26 27 30 30 32
10 9 7 3 5 12 8 4 2 2 6 3 2 2 2 5 1 4 3 1 1 4 3 4 5 2 2 2 2 2 3 4 5 5 7 15 11 11 21 21 22 27 28 32 36
10 8 4 3 4 8 12 9 10 5 6 5 5 5 5 3 3 2 2 2 3 3 2 6 1 3 3 2 3 3 2 4 5 2 8 7 14 9 22 30 33 31 31 33 36
11 7 2 1 2 5 7 12 9 7 1 3 4 4 4 3 3 1 2 2 4 3 3 5 2 2 4 5 5 3 1 3 4 7 3 1 5 8 14 21 24 27 32 33 40
12 7 3 4 6 2 3 5 5 6 5 5 2 4 3 4 3 7 2 1 5 4 4 1 3 4 5 2 4 2 5 3 5 4 2 3 4 4 7 18 17 29 32 35 38
12 6 3 7 4 1 4 4 2 3 4 2 3 4 11 6 5 11 7 2 3 3 6 3 5 5 5 4 1 6 4 5 3 4 1 2 2 6 6 11 18 26 35 40 46
13 5 2 7 5 2 4 2 1 5 2 2 5 6 5 13 9 11 16 11 7 6 6 3 3 5 3 4 2 5 1 5 4 3 1 6 6 5 6 13 17 26 37 43 45
11 4 4 11 5 2 4 3 5 4 3 3 3 5 5 7 7 8 7 9 4 5 6 7 4 5 5 7 7 11 6 3 3 0 5 2 0 7 6 5 8 18 35 42 42
10 2 4 10 6 2 2 4 4 3 2 2 3 4 6 5 5 7 3 6 8 6 4 3 6 7 8 1 4 5 4 4 3 3 5 5 6 5 7 14 20 24 30 34 38
7 2 8 9 5 2 1 4 7 5 3 5 4 6 6 5 4 3 5 2 3 3 4 3 4 5 2 3 1 5 3 2 2 2 2 4 8 8 7 10 14 19 16 29 39
3 4 9 8 3 3 4 4 3 3 4 4 4 2 3 5 4 4 3 5 3 4 1 3 2 2 6 6 4 3 3 3 3 2 4 5 5 5 10 13 20 24 22 23 33
2 4 4 6 2 1 4 5 4 3 3 3 3 4 3 2 3 1 1 1 3 4 6 3 3 6 2 2 4 5 4 3 3 4 4 3 6 5 5 9 20 25 31 33 24
1 3 1 7 3 2 2 4 1 3 5 4 5 4 3 2 2 2 3 1 7 1 3 2 4 2 6 5 4 4 4 4 4 6 2 2 6 10 8 18 24 34 37 40 23
3 3 6 6 2 2 4 1 1 3 2 3 3 2 2 3 3 1 2 3 8 3 3 3 1 3 8 6 5 5 2 2 2 2 4 2 6 14 24 25 31 32 40 36 23
3 3 5 9 5 3 3 2 3 6 5 6 5 5 4 2 5 4 1 2 6 3 4 4 3 7 6 7 3 3 3 5 3 2 5 7 17 10 18 14 32 34 34 31 22
6 2 2 2 5 4 2 4 2 3 4 4 4 3 5 3 1 1 1 4 2 0 2 4 3 5 6 8 3 6 8 8 7 7 7 12 22 15 8 14 22 24 27 24 21
4 3 3 3 3 2 6 3 3 2 3 2 7 3 3 6 7 7 4 3 5 1 2 2 3 4 4 7 7 5 8 14 14 15 16 12 13 2 19 13 15 21 22 16 16
7 5 2 6 3 3 2 4 3 3 5 6 13 5 2 5 8 4 9 3 4 4 4 3 4 2 5 4 6 5 11 11 6 7 6 7 7 7 6 6 10 16 18 13 9
Wind_Direction
339 336 334 330 327 324 320 316 315 313 313 310 302 292 286 285 292 312 354 124 123 143 149 141 145 107 131 95 84 49 55 39 321 11 99 133 122 167 158 143 105 288 154 160 157
345 340 336 333 331 330 325 321 319 320 317 313 307 290 279 273 283 321 291 186 142 164 161 129 141 133 37 97 67 89 123 184 65 55 44 346 157 161 125 158 79 120 145 156 160
353 347 341 338 336 337 334 330 328 328 327 324 307 288 262 235 99 38 178 191 146 141 152 126 102 124 84 132 167 30 268 78 32 207 21 15 111 143 155 240 177 153 157 164 168
356 355 351 347 343 345 344 338 335 337 339 339 316 270 223 165 141 74 70 146 159 169 157 139 165 200 174 177 186 182 131 70 46 59 33 56 3 212 172 267 180 162 161 166 172
1 360 1 358 351 348 349 344 345 345 349 352 350 209 169 158 68 26 103 114 161 179 191 177 224 209 25 272 154 175 103 70 93 71 34 351 233 223 211 39 174 166 169 174 176
0 2 5 5 3 1 1 1 358 354 3 8 58 132 142 119 102 92 98 102 87 69 281 231 290 330 314 299 185 113 98 120 160 253 336 342 300 201 206 189 177 177 180 182 184
358 2 3 8 18 19 12 349 342 6 45 51 57 111 116 117 84 103 110 116 73 45 51 40 273 329 338 2 99 133 101 87 26 6 338 336 296 172 174 181 177 187 186 192 194
356 359 3 19 26 12 356 345 30 63 73 44 68 109 91 96 62 69 13 41 331 25 27 31 72 329 326 26 83 48 140 50 270 133 275 255 276 189 172 168 175 189 192 198 199
355 357 3 34 26 11 354 25 88 51 65 63 67 96 81 92 115 65 42 347 287 274 1 332 158 113 61 72 60 51 98 77 309 208 290 228 284 187 171 172 181 191 197 200 207
352 356 1 49 31 19 357 55 31 21 53 57 68 94 71 55 104 105 47 331 317 233 276 91 95 73 34 53 97 328 72 121 225 202 218 245 253 195 183 180 187 194 202 206 210
347 352 0 56 39 37 42 103 356 27 35 32 29 51 14 355 295 211 278 229 169 116 96 35 71 121 150 172 259 221 208 207 254 217 179 222 231 185 193 199 196 196 202 211 216
344 343 357 71 69 53 50 70 32 330 323 18 3 1 14 20 29 151 225 110 103 99 64 30 101 180 194 163 70 358 360 317 297 190 197 250 232 181 191 205 205 199 203 208 218
342 333 317 130 109 107 60 35 18 348 21 351 4 3 2 350 347 30 149 101 98 77 69 133 217 337 87 34 43 352 202 267 278 317 314 174 287 184 211 209 213 218 217 214 215
339 326 317 170 146 118 41 358 342 343 71 303 19 22 336 312 52 5 191 60 35 121 138 114 308 49 48 13 127 346 198 243 308 40 282 61 284 243 197 210 209 217 216 220 219
335 323 301 190 190 128 337 331 294 326 77 309 16 14 49 57 328 12 35 120 79 93 82 283 4 3 18 327 218 243 299 259 243 205 116 287 121 273 130 212 224 219 217 217 223
330 315 239 184 193 279 331 343 100 47 146 13 20 353 42 25 36 39 49 80 69 71 17 18 352 62 291 332 329 277 335 27 58 104 250 227 172 267 179 216 223 225 223 219 216
325 304 211 191 194 261 323 144 49 117 310 4 38 17 85 8 30 28 34 37 50 53 3 339 360 329 358 13 350 26 43 357 344 258 224 212 175 231 243 245 234 221 223 223 218
326 279 191 187 194 268 351 63 96 190 214 90 102 48 73 359 9 15 63 51 12 59 77 61 337 14 342 89 252 304 124 139 263 234 268 279 248 251 227 271 280 257 256 235 216
340 158 152 161 172 336 105 75 187 201 175 125 58 65 6 7 82 67 22 85 48 28 108 76 291 322 308 300 55 314 36 282 168 340 64 247 290 304 290 315 331 312 292 239 220
357 142 161 172 175 328 81 196 184 209 122 75 107 82 113 340 52 47 26 348 340 22 50 188 295 267 292 5 28 117 247 5 10 278 285 294 281 243 327 333 334 326 315 282 246
358 124 150 178 228 5 130 215 219 166 126 100 125 94 102 136 112 148 90 311 334 333 79 104 120 289 23 24 261 350 21 21 124 134 198 303 270 231 340 327 324 317 313 311 277
103 71 64 163 45 42 131 192 316 124 90 82 92 109 130 156 108 85 112 99 1 280 65 25 136 244 251 288 295 187 105 102 104 297 255 207 260 283 320 338 341 326 317 314 292
33 83 63 158 97 328 304 320 159 118 87 97 112 122 100 119 103 159 130 168 30 64 135 170 13 20 344 0 358 52 345 96 139 81 231 240 262 340 332 337 330 326 324 312 288
7 45 51 71 76 122 24 7 97 60 73 87 111 91 98 88 22 174 324 225 345 169 95 111 131 168 190 223 174 262 243 279 162 159 250 241 287 309 308 323 322 327 323 318 302
34 55 39 354 9 60 12 344 107 115 84 79 49 124 145 127 69 215 252 323 330 291 82 99 212 190 244 255 257 236 252 244 232 220 218 281 284 290 300 305 310 323 325 310 310
64 32 33 43 3 29 3 36 335 79 82 58 127 139 118 149 184 208 174 196 230 39 101 32 246 175 266 256 226 246 269 264 249 253 258 255 266 199 319 319 326 346 330 328 321
46 28 13 5 21 73 335 300 323 107 39 166 141 110 161 229 183 186 217 257 285 181 183 166 158 111 258 258 308 275 230 232 238 233 214 227 241 309 304 311 346 356 331 337 327
Height
1517 1516 1514 1513 1512 1511 1510 1509 1508 1508 1506 1506 1505 1505 1505 1505 1505 1505 1506 1507 1508 1508 1508 1509 1511 1509 1508 1507 1510 1510 1520 1529 1524 1523 1524 1520 1521 1524 1525 1527 1528 1529 1528 1532 1536
1517 1515 1514 1512 1511 1510 1509 1508 1507 1506 1505 1504 1503 1503 1502 1503 1504 1505 1507 1507 1508 1509 1509 1510 1511 1511 1508 1511 1512 1512 1521 1522 1520 1522 1524 1523 1523 1525 1527 1528 1530 1530 1533 1535 1538
1517 1515 1513 1512 1510 1509 1508 1507 1506 1504 1503 1502 1501 1501 1501 1502 1504 1505 1504 1506 1508 1510 1511 1512 1512 1513 1513 1514 1516 1516 1520 1517 1521 1521 1523 1523 1523 1525 1528 1530 1528 1528 1532 1535 1539
1516 1514 1513 1511 1510 1508 1507 1506 1504 1503 1502 1501 1500 1500 1500 1502 1509 1505 1505 1506 1508 1510 1512 1513 1514 1515 1515 1517 1516 1517 1519 1520 1522 1523 1523 1523 1524 1525 1527 1526 1528 1530 1533 1536 1539
1516 1514 1512 1510 1509 1508 1506 1505 1503 1502 1501 1500 1499 1499 1500 1502 1504 1505 1506 1507 1508 1510 1511 1512 1513 1513 1513 1512 1514 1516 1520 1520 1520 1520 1521 1523 1524 1525 1525 1526 1530 1533 1534 1537 1540
1515 1513 1511 1510 1508 1507 1506 1505 1503 1501 1500 1499 1499 1499 1500 1503 1504 1505 1506 1508 1509 1510 1511 1512 1512 1513 1512 1511 1512 1515 1520 1518 1515 1515 1519 1519 1519 1521 1522 1526 1531 1534 1536 1537 1540
1514 1513 1511 1509 1507 1506 1505 1504 1502 1501 1500 1500 1500 1500 1501 1504 1504 1505 1506 1508 1510 1510 1512 1512 1513 1514 1512 1511 1514 1517 1520 1520 1520 1518 1518 1520 1519 1518 1521 1525 1530 1535 1536 1539 1541
1515 1513 1510 1509 1508 1507 1505 1503 1502 1501 1501 1500 1500 1501 1502 1504 1504 1505 1506 1508 1509 1510 1511 1512 1512 1513 1513 1514 1517 1519 1521 1530 1520 1521 1522 1524 1525 1516 1521 1523 1529 1533 1536 1538 1541
1514 1512 1511 1509 1508 1507 1505 1503 1503 1502 1501 1501 1502 1501 1504 1505 1505 1505 1506 1507 1508 1509 1511 1511 1512 1514 1514 1518 1527 1522 1534 1533 1527 1524 1523 1524 1523 1516 1519 1522 1528 1532 1534 1536 1539
1514 1512 1510 1510 1509 1507 1504 1504 1504 1503 1503 1503 1503 1505 1506 1506 1506 1506 1506 1506 1507 1508 1510 1511 1512 1517 1521 1525 1541 1533 1533 1528 1528 1522 1524 1523 1520 1518 1519 1520 1524 1529 1532 1535 1536
1514 1512 1511 1510 1509 1508 1506 1505 1507 1506 1503 1504 1506 1506 1505 1506 1505 1506 1506 1506 1506 1507 1512 1512 1521 1529 1523 1521 1520 1522 1527 1531 1521 1514 1520 1519 1513 1515 1519 1523 1524 1525 1528 1531 1532
1514 1512 1511 1510 1510 1510 1508 1507 1510 1512 1507 1504 1504 1505 1505 1505 1505 1505 1506 1507 1506 1513 1511 1518 1527 1519 1519 1519 1519 1519 1523 1527 1519 1512 1516 1511 1512 1510 1513 1512 1514 1517 1521 1524 1529
1513 1512 1511 1511 1510 1511 1510 1510 1511 1510 1509 1506 1506 1505 1506 1507 1506 1506 1507 1507 1508 1512 1515 1523 1519 1517 1516 1519 1522 1524 1525 1526 1526 1515 1508 1507 1515 1511 1509 1512 1516 1517 1518 1520 1522
1511 1510 1510 1511 1513 1511 1511 1511 1511 1511 1521 1513 1508 1508 1508 1506 1507 1506 1507 1509 1510 1516 1517 1519 1516 1516 1518 1520 1521 1529 1517 1518 1521 1526 1538 1511 1542 1515 1508 1508 1509 1510 1512 1514 1517
1510 1509 1509 1510 1510 1511 1512 1511 1511 1511 1548 1512 1510 1510 1509 1508 1511 1509 1508 1508 1513 1515 1518 1524 1519 1520 1523 1523 1519 1526 1515 1517 1516 1524 1526 1521 1534 1516 1506 1512 1505 1501 1502 1505 1507
1508 1507 1507 1509 1510 1510 1510 1510 1512 1528 1539 1514 1512 1513 1511 1512 1513 1513 1509 1510 1515 1517 1520 1523 1521 1523 1523 1520 1519 1516 1516 1520 1524 1531 1544 1524 1526 1520 1513 1497 1493 1493 1493 1493 1496
1506 1505 1506 1507 1509 1509 1509 1510 1528 1539 1519 1522 1520 1517 1519 1523 1521 1521 1523 1526 1533 1537 1545 1532 1529 1525 1523 1525 1519 1522 1534 1554 1547 1543 1545 1521 1526 1512 1489 1487 1487 1484 1484 1485 1489
1504 1503 1504 1506 1508 1508 1509 1513 1530 1522 1520 1517 1520 1521 1527 1527 1528 1527 1530 1537 1532 1535 1551 1551 1550 1532 1528 1529 1532 1531 1535 1558 1553 1559 1543 1525 1525 1503 1482 1479 1478 1478 1476 1477 1482
1503 1502 1504 1506 1507 1508 1509 1529 1527 1520 1514 1518 1521 1529 1533 1529 1529 1532 1537 1539 1537 1534 1547 1554 1548 1531 1528 1527 1529 1531 1542 1533 1543 1546 1553 1534 1509 1491 1479 1477 1474 1471 1470 1469 1470
1502 1502 1504 1506 1507 1507 1510 1522 1516 1512 1512 1515 1527 1529 1538 1537 1536 1536 1539 1539 1538 1534 1534 1541 1554 1537 1531 1527 1528 1531 1530 1544 1553 1552 1551 1539 1522 1514 1490 1485 1479 1472 1468 1465 1463
1502 1502 1503 1505 1507 1506 1518 1519 1513 1510 1511 1517 1525 1532 1536 1537 1537 1540 1541 1541 1538 1536 1534 1539 1549 1545 1535 1536 1540 1541 1539 1542 1548 1555 1557 1561 1534 1497 1492 1491 1485 1475 1468 1460 1456
1502 1504 1504 1505 1508 1513 1515 1511 1510 1511 1512 1515 1520 1526 1532 1534 1537 1538 1541 1539 1537 1536 1540 1541 1554 1556 1543 1534 1534 1533 1537 1547 1559 1556 1554 1552 1532 1489 1491 1488 1486 1477 1470 1460 1452
1502 1503 1504 1505 1516 1517 1512 1510 1509 1511 1513 1517 1522 1522 1527 1533 1541 1537 1537 1537 1536 1536 1538 1539 1555 1566 1555 1544 1537 1538 1536 1538 1546 1555 1553 1552 1524 1491 1489 1486 1484 1480 1467 1462 1456
1505 1507 1506 1507 1511 1513 1513 1512 1512 1512 1514 1516 1522 1523 1529 1534 1536 1539 1538 1536 1535 1535 1535 1536 1552 1552 1563 1549 1542 1544 1539 1538 1541 1555 1546 1536 1513 1507 1496 1495 1483 1476 1470 1464 1459
1508 1513 1514 1518 1514 1515 1515 1514 1513 1515 1516 1518 1523 1524 1529 1537 1538 1538 1538 1537 1535 1535 1536 1538 1549 1550 1546 1541 1540 1540 1538 1536 1537 1536 1540 1520 1510 1502 1501 1496 1486 1479 1471 1465 1463
1511 1514 1515 1515 1515 1515 1517 1519 1517 1517 1517 1521 1524 1526 1527 1534 1533 1538 1537 1539 1537 1536 1537 1540 1547 1545 1542 1536 1536 1535 1532 1526 1524 1522 1517 1513 1509 1498 1495 1493 1486 1477 1473 1466 1464
1515 1516 1516 1519 1518 1519 1522 1519 1516 1515 1518 1518 1520 1526 1529 1528 1528 1530 1531 1532 1533 1535 1539 1541 1546 1550 1547 1536 1535 1537 1523 1517 1513 1505 1504 1510 1499 1495 1491 1490 1483 1474 1475 1469 1465